Hatteras, NC

10:06 PM EST on December 10, 2019 (GMT -0500)
Mitchell

Weather History for KHSE - August, 2019

Change the Weather History Date:

Tuesday, August 20, 2019

  Actual Average Record
Temperature  
Mean Temperature 84 °F 78 °F  
Max Temperature 88 °F 84 °F 91 °F (2005)
Min Temperature 79 °F 73 °F 63 °F (1960)
Degree Days  
Heating Degree Days 0 0  
Month to date heating degree days 0 0  
Since 1 June heating degree days 0 3  
Since 1 July heating degree days 0 0  
Cooling Degree Days 18 13  
Month to date cooling degree days 338 277  
Year to date cooling degree days 1638 1165  
Since 1 June cooling degree days 1256 1022  
Growing Degree Days 34 (Base 50)    
Moisture  
Dew Point 78 °F    
Average Humidity 85    
Maximum Humidity 97    
Minimum Humidity 70    
Precipitation  
Precipitation 0.00 in 0.23 in 3.71 in (1893)
Month to date precipitation 7.02 4.24  
Year to date precipitation 38.74 34.50  
Snow  
Snow 0.00 in - - ()
Month to date snowfall 0.0  
Since 1 July snowfall 0.0  
Snow Depth 0.00 in    
Sea Level Pressure  
Sea Level Pressure 30.11 in    
Wind  
Wind Speed 7 mph ()    
Max Wind Speed 14 mph    
Max Gust Speed 20 mph    
Visibility 8.3 miles    
Events      
T = Trace of Precipitation, MM = Missing Value Source: Averaged Metar Reports

Daily Weather History Graph

Daily Weather History Graph

Search for Another Location

Airport or City:

Astronomy

Aug. 20, 2019 Rise Set
Actual Time 6:25 AM EDT 7:45 PM EDT
Civil Twilight 5:59 AM EDT 8:11 PM EDT
Nautical Twilight 5:27 AM EDT 8:43 PM EDT
Astronomical Twilight 4:54 AM EDT 9:16 PM EDT
Moon 10:43 PM EDT (8/20) 10:52 AM EDT (8/20)
Length of Visible Light 14h 12m
Length of Day
13h 19m
Waning Gibbous, 78% of the Moon is Illuminated
Aug 20
Waning Gibbous
Aug 23
Last Quarter
Aug 30
New
Sep 5
First Quarter
Sep 14
Full

Hourly Weather History & Observations

Time (EDT) Temp. Heat Index Dew Point Humidity Pressure Visibility Wind Dir Wind Speed Gust Speed Precip Events Conditions
12:51 AM 81.0 °F 88.6 °F 78.1 °F 91% 30.09 in 9.0 mi WSW 8.1 mph - N/A   Clear
1:51 AM 80.1 °F 85.8 °F 77.0 °F 90% 30.08 in 8.0 mi WSW 9.2 mph - N/A   Clear
2:51 AM 80.1 °F 85.8 °F 77.0 °F 90% 30.08 in 5.0 mi WSW 6.9 mph - N/A   Clear
3:51 AM 79.0 °F - 77.0 °F 94% 30.08 in 10.0 mi West 6.9 mph - N/A   Clear
4:51 AM 80.1 °F 85.8 °F 77.0 °F 90% 30.09 in 10.0 mi West 8.1 mph - N/A   Clear
5:14 AM 80.1 °F 85.8 °F 77.0 °F 90% 30.09 in 6.0 mi WSW 5.8 mph - N/A   Mostly Cloudy
5:39 AM 79.0 °F - 77.0 °F 94% 30.10 in 7.0 mi WSW 5.8 mph - N/A   Scattered Clouds
5:51 AM 79.0 °F - 77.0 °F 94% 30.10 in 6.0 mi WSW 5.8 mph - N/A   Scattered Clouds
6:29 AM 79.0 °F - 77.0 °F 94% 30.11 in 4.0 mi WSW 5.8 mph - N/A   Mostly Cloudy
6:51 AM 80.1 °F 85.8 °F 77.0 °F 90% 30.11 in 7.0 mi WSW 5.8 mph - N/A   Overcast
7:17 AM 81.0 °F 87.9 °F 77.0 °F 88% 30.12 in 4.0 mi WSW 4.6 mph - N/A   Scattered Clouds
7:28 AM 81.0 °F 88.6 °F 78.1 °F 91% 30.12 in 5.0 mi WSW 5.8 mph - N/A   Mostly Cloudy
7:51 AM 82.0 °F 91.0 °F 78.1 °F 88% 30.13 in 10.0 mi West 5.8 mph - N/A   Mostly Cloudy
7:58 AM 82.0 °F 91.0 °F 78.1 °F 88% 30.12 in 10.0 mi West 4.6 mph - N/A   Scattered Clouds
8:51 AM 84.0 °F 93.7 °F 77.0 °F 79% 30.14 in 10.0 mi West 6.9 mph - N/A   Clear
9:51 AM 86.0 °F 96.0 °F 75.9 °F 72% 30.14 in 10.0 mi Variable 6.9 mph - N/A   Clear
10:51 AM 87.1 °F 98.8 °F 77.0 °F 72% 30.14 in 10.0 mi West 8.1 mph - N/A   Clear
11:51 AM 87.1 °F 101.5 °F 79.0 °F 77% 30.14 in 10.0 mi SW 6.9 mph - N/A   Clear
12:51 PM 87.1 °F 101.5 °F 79.0 °F 77% 30.13 in 10.0 mi SW 9.2 mph - N/A   Clear
1:51 PM 87.1 °F 101.5 °F 79.0 °F 77% 30.12 in 10.0 mi SW 9.2 mph - N/A   Clear
2:51 PM 88.0 °F 103.1 °F 79.0 °F 75% 30.12 in 10.0 mi SW 10.4 mph - N/A   Clear
3:51 PM 87.1 °F 99.8 °F 78.1 °F 74% 30.10 in 9.0 mi SW 13.8 mph 19.6 mph N/A   Clear
4:51 PM 84.0 °F 93.7 °F 77.0 °F 79% 30.09 in 7.0 mi SW 12.7 mph - N/A   Clear
5:51 PM 84.0 °F 94.8 °F 78.1 °F 82% 30.08 in 9.0 mi WSW 10.4 mph - N/A   Clear
6:51 PM 82.9 °F 92.8 °F 78.1 °F 85% 30.08 in 8.0 mi SW 9.2 mph - N/A   Clear
7:51 PM 82.0 °F 91.0 °F 78.1 °F 88% 30.07 in 8.0 mi SW 9.2 mph - N/A   Clear
8:51 PM 82.9 °F 92.8 °F 78.1 °F 85% 30.10 in 10.0 mi WSW 9.2 mph - N/A   Clear
9:51 PM 82.0 °F 91.0 °F 78.1 °F 88% 30.11 in 10.0 mi WSW 9.2 mph - N/A   Clear
10:51 PM 82.0 °F 91.0 °F 78.1 °F 88% 30.11 in 9.0 mi SW 9.2 mph - N/A   Clear
11:51 PM 82.0 °F 91.6 °F 79.0 °F 90% 30.11 in 9.0 mi SW 9.2 mph - N/A   Clear